Location: Budapest
(47.4979°N, 19.0402°E)
Time: 12:10:06
(UTC+02:00)

OTV 5 (USA 277) - Pass Details

Date: 16 October 2017
Orbit: 404 x 417 km, 43.0° (Epoch: 07 September)

Event Time Altitude Azimuth Distance (km) Brightness Sun altitude
Rises 19:17:36 0° 259° (W) 2,354 ? -14.9°
Reaches altitude 10° 19:19:47 10° 251° (WSW) 1,491 ? -15.2°
Maximum altitude 19:22:56 38° 182° (S) 654 ? -15.8°
Enters shadow 19:24:01 29° 140° (SE) 797 ? -16.0°
